"Period start","avg(HW err(1)/warn(2) (#))","avg(Visibility (m))","avg(Weather code (#))","avg(Precip intensity (mm/h))","min(HW err(1)/warn(2) (#))","max(HW err(1)/warn(2) (#))","std(HW err(1)/warn(2) (#))","med(HW err(1)/warn(2) (#))","min(Visibility (m))","max(Visibility (m))","std(Visibility (m))","med(Visibility (m))","min(Weather code (#))","max(Weather code (#))","std(Weather code (#))","med(Weather code (#))","min(Precip intensity (mm/h))","max(Precip intensity (mm/h))","std(Precip intensity (mm/h))","med(Precip intensity (mm/h))"
2017-09-15 00:00:00,0,3483,7,0.00,0,0,0,0,1218,10372,2721,2649,0,10,5,10,0.00,0.00,0.00,0.00
2017-09-15 00:10:00,1,1466,10,0.00,0,2,1,2,897,2643,677,1068,10,10,0,10,0.00,0.00,0.00,0.00
2017-09-15 00:20:00,2,2599,10,0.00,2,2,0,2,1055,5083,1433,1967,10,10,0,10,0.00,0.00,0.00,0.00
2017-09-15 00:30:00,2,4666,10,0.00,2,2,0,2,2759,8516,1624,4139,10,10,0,10,0.00,0.00,0.00,0.00
2017-09-15 00:40:00,2,4454,10,0.00,2,2,0,2,3277,6573,979,4446,10,10,0,10,0.00,0.00,0.00,0.00
2017-09-15 00:50:00,2,14964,10,0.00,2,2,0,2,2257,46915,15216,6690,10,10,0,10,0.00,0.00,0.00,0.00
2017-09-15 01:00:00,2,24936,5,0.00,2,2,0,2,3563,45021,15457,26746,0,10,5,5,0.00,0.00,0.00,0.00
2017-09-15 01:10:00,2,20994,0,0.00,2,2,0,2,8091,40128,11761,16020,0,0,0,0,0.00,0.00,0.00,0.00
2017-09-15 01:20:00,2,40654,0,0.00,2,2,0,2,23990,50000,8459,42247,0,0,0,0,0.00,0.00,0.00,0.00
2017-09-15 01:30:00,2,20775,3,0.00,2,2,0,2,2678,50000,17597,11752,0,10,5,0,0.00,0.00,0.00,0.00
2017-09-15 01:40:00,2,39235,8,0.00,2,2,0,2,24377,50000,9208,41344,0,10,4,10,0.00,0.00,0.00,0.00
2017-09-15 01:50:00,2,33516,0,0.00,2,2,0,2,18061,46856,7724,32062,0,0,0,0,0.00,0.00,0.00,0.00
2017-09-15 02:00:00,2,16686,4,0.00,2,2,0,2,1705,48398,17041,7664,0,10,5,0,0.00,0.00,0.00,0.00
2017-09-15 02:10:00,2,6236,10,0.00,2,2,0,2,2149,10788,2656,5374,10,10,0,10,0.00,0.00,0.00,0.00
2017-09-15 02:20:00,2,5169,10,0.00,2,2,0,2,2376,15387,3789,3694,10,10,0,10,0.00,0.00,0.00,0.00
2017-09-15 02:30:00,2,16209,10,0.00,2,2,0,2,4434,36503,9675,12297,10,10,0,10,0.00,0.00,0.00,0.00
2017-09-15 02:40:00,2,48479,2,0.00,2,2,0,2,38675,50000,3459,50000,0,10,4,0,0.00,0.00,0.00,0.00
2017-09-15 02:50:00,2,39318,0,0.00,2,2,0,2,16176,50000,11608,43526,0,0,0,0,0.00,0.00,0.00,0.00
2017-09-15 03:00:00,2,34928,0,0.00,2,2,0,2,4754,50000,17311,41822,0,0,0,0,0.00,0.00,0.00,0.00
2017-09-15 03:10:00,2,34436,0,0.00,2,2,0,2,8006,49634,13888,38584,0,0,0,0,0.00,0.00,0.00,0.00
2017-09-15 03:20:00,2,6126,5,0.00,2,2,0,2,4249,8911,1556,5592,0,10,5,5,0.00,0.00,0.00,0.00
2017-09-15 03:30:00,2,18633,10,0.00,2,2,0,2,4050,36374,11398,15636,10,10,0,10,0.00,0.00,0.00,0.00
2017-09-15 03:40:00,2,36375,2,0.00,2,2,0,2,24261,50000,7572,37140,0,10,4,0,0.00,0.00,0.00,0.00
2017-09-15 03:50:00,2,49516,0,0.00,2,2,0,2,45524,50000,1335,50000,0,0,0,0,0.00,0.00,0.00,0.00
2017-09-15 04:00:00,2,40695,0,0.00,2,2,0,2,9762,50000,15294,48860,0,0,0,0,0.00,0.00,0.00,0.00
2017-09-15 04:10:00,2,4737,7,0.00,2,2,0,2,1568,15616,4517,2703,0,10,5,10,0.00,0.00,0.00,0.00
2017-09-15 04:20:00,2,17614,10,0.00,2,2,0,2,2197,45792,17765,6732,10,10,0,10,0.00,0.00,0.00,0.00
2017-09-15 04:30:00,2,48775,5,0.00,2,2,0,2,44049,50000,2292,50000,0,10,5,5,0.00,0.00,0.00,0.00
2017-09-15 04:40:00,2,9728,7,0.00,2,2,0,2,1829,28255,8117,6774,0,10,5,10,0.00,0.00,0.00,0.00
2017-09-15 04:50:00,2,29698,9,0.00,2,2,0,2,4530,50000,19283,34916,0,10,3,10,0.00,0.00,0.00,0.00
2017-09-15 05:00:00,2,8018,3,0.00,2,2,0,2,1234,24180,7063,5321,0,10,5,0,0.00,0.00,0.00,0.00
2017-09-15 05:10:00,2,9230,10,0.00,2,2,0,2,1499,28209,7628,8404,10,10,0,10,0.00,0.00,0.00,0.00
2017-09-15 05:20:00,2,2117,35,0.52,2,2,0,2,1041,5775,1350,1586,10,61,18,40,0.00,1.95,0.68,0.15
2017-09-15 05:30:00,2,32444,10,0.00,2,2,0,2,2051,50000,18566,38548,10,10,0,10,0.00,0.00,0.00,0.00
2017-09-15 05:40:00,2,16122,7,0.00,2,2,0,2,3530,50000,14892,10610,0,10,5,10,0.00,0.00,0.00,0.00
2017-09-15 05:50:00,2,49581,6,0.00,2,2,0,2,45807,50000,1258,50000,0,10,5,10,0.00,0.00,0.00,0.00
2017-09-15 06:00:00,2,49818,0,0.00,2,2,0,2,48204,50000,538,50000,0,0,0,0,0.00,0.00,0.00,0.00
2017-09-15 06:10:00,2,49939,0,0.00,2,2,0,2,49391,50000,183,50000,0,0,0,0,0.00,0.00,0.00,0.00
2017-09-15 06:20:00,2,49990,0,0.00,2,2,0,2,49904,50000,29,50000,0,0,0,0,0.00,0.00,0.00,0.00
2017-09-15 06:30:00,2,50000,0,0.00,2,2,0,2,50000,50000,0,50000,0,0,0,0,0.00,0.00,0.00,0.00
2017-09-15 06:40:00,2,36378,0,0.00,2,2,0,2,19464,50000,11670,34470,0,0,0,0,0.00,0.00,0.00,0.00
2017-09-15 06:50:00,2,49521,0,0.00,2,2,0,2,45277,50000,1415,50000,0,0,0,0,0.00,0.00,0.00,0.00
2017-09-15 07:00:00,2,18667,0,0.00,2,2,0,2,8355,50000,12062,14454,0,0,0,0,0.00,0.00,0.00,0.00
2017-09-15 07:10:00,2,48399,0,0.00,2,2,0,2,37636,50000,3749,50000,0,0,0,0,0.00,0.00,0.00,0.00
2017-09-15 07:20:00,2,40014,0,0.00,2,2,0,2,6660,50000,16815,50000,0,0,0,0,0.00,0.00,0.00,0.00
2017-09-15 07:30:00,2,7302,7,0.00,2,2,0,2,3218,13678,2820,6870,0,10,5,10,0.00,0.00,0.00,0.00
2017-09-15 07:40:00,2,35380,5,0.00,2,2,0,2,7038,50000,15361,39768,0,10,5,5,0.00,0.00,0.00,0.00
2017-09-15 07:50:00,2,17554,0,0.00,2,2,0,2,5346,50000,16853,8194,0,0,0,0,0.00,0.00,0.00,0.00
2017-09-15 08:00:00,2,6566,25,0.04,2,2,0,2,1626,24200,6754,3340,10,41,15,25,0.00,0.15,0.06,0.00
2017-09-15 08:10:00,2,30930,7,0.00,2,2,0,2,11924,50000,15063,26094,0,10,5,10,0.00,0.00,0.00,0.00
2017-09-15 08:20:00,2,50000,0,0.00,2,2,0,2,50000,50000,0,50000,0,0,0,0,0.00,0.00,0.00,0.00
2017-09-15 08:30:00,2,50000,0,0.00,2,2,0,2,50000,50000,0,50000,0,0,0,0,0.00,0.00,0.00,0.00
2017-09-15 08:40:00,2,50000,0,0.00,2,2,0,2,50000,50000,0,50000,0,0,0,0,0.00,0.00,0.00,0.00
2017-09-15 08:50:00,2,50000,0,0.00,2,2,0,2,50000,50000,0,50000,0,0,0,0,0.00,0.00,0.00,0.00
2017-09-15 09:00:00,2,50000,0,0.00,2,2,0,2,50000,50000,0,50000,0,0,0,0,0.00,0.00,0.00,0.00
2017-09-15 09:10:00,2,50000,0,0.00,2,2,0,2,50000,50000,0,50000,0,0,0,0,0.00,0.00,0.00,0.00
2017-09-15 09:20:00,2,50000,0,0.00,2,2,0,2,50000,50000,0,50000,0,0,0,0,0.00,0.00,0.00,0.00
2017-09-15 09:30:00,2,43723,0,0.00,2,2,0,2,25885,50000,9271,49255,0,0,0,0,0.00,0.00,0.00,0.00
2017-09-15 09:40:00,2,21473,4,0.00,2,2,0,2,3217,50000,18602,13190,0,41,12,0,0.00,0.00,0.00,0.00
2017-09-15 09:50:00,2,10929,66,0.02,2,2,0,2,2708,35901,10970,7012,41,77,16,77,0.00,0.05,0.02,0.00
2017-09-15 10:00:00,2,11259,55,0.00,2,2,0,2,6603,20246,4057,9822,41,77,18,41,0.00,0.00,0.00,0.00
2017-09-15 10:10:00,2,29763,25,0.00,2,2,0,2,8667,50000,17736,31148,0,41,20,41,0.00,0.00,0.00,0.00
2017-09-15 10:20:00,2,50000,0,0.00,2,2,0,2,50000,50000,0,50000,0,0,0,0,0.00,0.00,0.00,0.00
2017-09-15 10:30:00,2,50000,0,0.00,2,2,0,2,50000,50000,0,50000,0,0,0,0,0.00,0.00,0.00,0.00
2017-09-15 10:40:00,2,50000,0,0.00,2,2,0,2,50000,50000,0,50000,0,0,0,0,0.00,0.00,0.00,0.00
2017-09-15 10:50:00,2,50000,0,0.00,2,2,0,2,50000,50000,0,50000,0,0,0,0,0.00,0.00,0.00,0.00
2017-09-15 11:00:00,2,50000,0,0.00,2,2,0,2,50000,50000,0,50000,0,0,0,0,0.00,0.00,0.00,0.00
2017-09-15 11:10:00,2,50000,0,0.00,2,2,0,2,50000,50000,0,50000,0,0,0,0,0.00,0.00,0.00,0.00
2017-09-15 11:20:00,2,50000,0,0.00,2,2,0,2,50000,50000,0,50000,0,0,0,0,0.00,0.00,0.00,0.00
2017-09-15 11:30:00,2,50000,0,0.00,2,2,0,2,50000,50000,0,50000,0,0,0,0,0.00,0.00,0.00,0.00
2017-09-15 11:40:00,2,50000,0,0.00,2,2,0,2,50000,50000,0,50000,0,0,0,0,0.00,0.00,0.00,0.00
2017-09-15 11:50:00,2,50000,0,0.00,2,2,0,2,50000,50000,0,50000,0,0,0,0,0.00,0.00,0.00,0.00
2017-09-15 12:00:00,2,50000,0,0.00,2,2,0,2,50000,50000,0,50000,0,0,0,0,0.00,0.00,0.00,0.00
2017-09-15 12:10:00,2,50000,0,0.00,2,2,0,2,50000,50000,0,50000,0,0,0,0,0.00,0.00,0.00,0.00
2017-09-15 12:20:00,2,50000,0,0.00,2,2,0,2,50000,50000,0,50000,0,0,0,0,0.00,0.00,0.00,0.00
2017-09-15 12:30:00,2,50000,0,0.00,2,2,0,2,50000,50000,0,50000,0,0,0,0,0.00,0.00,0.00,0.00
2017-09-15 12:40:00,2,50000,0,0.00,2,2,0,2,50000,50000,0,50000,0,0,0,0,0.00,0.00,0.00,0.00
2017-09-15 12:50:00,2,50000,0,0.00,2,2,0,2,50000,50000,0,50000,0,0,0,0,0.00,0.00,0.00,0.00
2017-09-15 13:00:00,2,50000,0,0.00,2,2,0,2,50000,50000,0,50000,0,0,0,0,0.00,0.00,0.00,0.00
2017-09-15 13:10:00,2,50000,0,0.00,2,2,0,2,50000,50000,0,50000,0,0,0,0,0.00,0.00,0.00,0.00
2017-09-15 13:20:00,2,49980,0,0.00,2,2,0,2,49802,50000,59,50000,0,0,0,0,0.00,0.00,0.00,0.00
2017-09-15 13:30:00,2,50000,0,0.00,2,2,0,2,50000,50000,0,50000,0,0,0,0,0.00,0.00,0.00,0.00
2017-09-15 13:40:00,2,50000,0,0.00,2,2,0,2,50000,50000,0,50000,0,0,0,0,0.00,0.00,0.00,0.00
2017-09-15 13:50:00,2,50000,0,0.00,2,2,0,2,50000,50000,0,50000,0,0,0,0,0.00,0.00,0.00,0.00
2017-09-15 14:00:00,2,50000,0,0.00,2,2,0,2,50000,50000,0,50000,0,0,0,0,0.00,0.00,0.00,0.00
2017-09-15 14:10:00,2,50000,0,0.00,2,2,0,2,50000,50000,0,50000,0,0,0,0,0.00,0.00,0.00,0.00
2017-09-15 14:20:00,2,50000,0,0.00,2,2,0,2,50000,50000,0,50000,0,0,0,0,0.00,0.00,0.00,0.00
2017-09-15 14:30:00,2,50000,0,0.00,2,2,0,2,50000,50000,0,50000,0,0,0,0,0.00,0.00,0.00,0.00
2017-09-15 14:40:00,2,50000,0,0.00,2,2,0,2,50000,50000,0,50000,0,0,0,0,0.00,0.00,0.00,0.00
2017-09-15 14:50:00,2,50000,0,0.00,2,2,0,2,50000,50000,0,50000,0,0,0,0,0.00,0.00,0.00,0.00
2017-09-15 15:00:00,2,50000,0,0.00,2,2,0,2,50000,50000,0,50000,0,0,0,0,0.00,0.00,0.00,0.00
2017-09-15 15:10:00,2,50000,0,0.00,2,2,0,2,50000,50000,0,50000,0,0,0,0,0.00,0.00,0.00,0.00
2017-09-15 15:20:00,2,50000,0,0.00,2,2,0,2,50000,50000,0,50000,0,0,0,0,0.00,0.00,0.00,0.00
2017-09-15 15:30:00,2,50000,0,0.00,2,2,0,2,50000,50000,0,50000,0,0,0,0,0.00,0.00,0.00,0.00
2017-09-15 15:40:00,2,50000,0,0.00,2,2,0,2,50000,50000,0,50000,0,0,0,0,0.00,0.00,0.00,0.00
2017-09-15 15:50:00,2,50000,0,0.00,2,2,0,2,50000,50000,0,50000,0,0,0,0,0.00,0.00,0.00,0.00
2017-09-15 16:00:00,2,50000,0,0.00,2,2,0,2,50000,50000,0,50000,0,0,0,0,0.00,0.00,0.00,0.00
2017-09-15 16:10:00,2,50000,0,0.00,2,2,0,2,50000,50000,0,50000,0,0,0,0,0.00,0.00,0.00,0.00
2017-09-15 16:20:00,2,50000,0,0.00,2,2,0,2,50000,50000,0,50000,0,0,0,0,0.00,0.00,0.00,0.00
2017-09-15 16:30:00,2,50000,0,0.00,2,2,0,2,50000,50000,0,50000,0,0,0,0,0.00,0.00,0.00,0.00
2017-09-15 16:40:00,2,50000,0,0.00,2,2,0,2,50000,50000,0,50000,0,0,0,0,0.00,0.00,0.00,0.00
2017-09-15 16:50:00,2,50000,0,0.00,2,2,0,2,50000,50000,0,50000,0,0,0,0,0.00,0.00,0.00,0.00
2017-09-15 17:00:00,2,50000,0,0.00,2,2,0,2,50000,50000,0,50000,0,0,0,0,0.00,0.00,0.00,0.00
2017-09-15 17:10:00,2,50000,0,0.00,2,2,0,2,50000,50000,0,50000,0,0,0,0,0.00,0.00,0.00,0.00
2017-09-15 17:20:00,2,50000,0,0.00,2,2,0,2,50000,50000,0,50000,0,0,0,0,0.00,0.00,0.00,0.00
2017-09-15 17:30:00,2,50000,0,0.00,2,2,0,2,50000,50000,0,50000,0,0,0,0,0.00,0.00,0.00,0.00
2017-09-15 17:40:00,2,50000,0,0.00,2,2,0,2,50000,50000,0,50000,0,0,0,0,0.00,0.00,0.00,0.00
2017-09-15 17:50:00,2,50000,0,0.00,2,2,0,2,50000,50000,0,50000,0,0,0,0,0.00,0.00,0.00,0.00
2017-09-15 18:00:00,2,50000,0,0.00,2,2,0,2,50000,50000,0,50000,0,0,0,0,0.00,0.00,0.00,0.00
2017-09-15 18:10:00,2,50000,0,0.00,2,2,0,2,50000,50000,0,50000,0,0,0,0,0.00,0.00,0.00,0.00
2017-09-15 18:20:00,2,50000,0,0.00,2,2,0,2,50000,50000,0,50000,0,0,0,0,0.00,0.00,0.00,0.00
2017-09-15 18:30:00,2,50000,0,0.00,2,2,0,2,50000,50000,0,50000,0,0,0,0,0.00,0.00,0.00,0.00
2017-09-15 18:40:00,2,50000,0,0.00,2,2,0,2,50000,50000,0,50000,0,0,0,0,0.00,0.00,0.00,0.00
2017-09-15 18:50:00,2,50000,0,0.00,2,2,0,2,50000,50000,0,50000,0,0,0,0,0.00,0.00,0.00,0.00
2017-09-15 19:00:00,2,50000,0,0.00,2,2,0,2,50000,50000,0,50000,0,0,0,0,0.00,0.00,0.00,0.00
2017-09-15 19:10:00,2,50000,0,0.00,2,2,0,2,50000,50000,0,50000,0,0,0,0,0.00,0.00,0.00,0.00
2017-09-15 19:20:00,2,50000,0,0.00,2,2,0,2,50000,50000,0,50000,0,0,0,0,0.00,0.00,0.00,0.00
2017-09-15 19:30:00,2,50000,0,0.00,2,2,0,2,50000,50000,0,50000,0,0,0,0,0.00,0.00,0.00,0.00
2017-09-15 19:40:00,2,50000,0,0.00,2,2,0,2,50000,50000,0,50000,0,0,0,0,0.00,0.00,0.00,0.00
2017-09-15 19:50:00,2,50000,0,0.00,2,2,0,2,50000,50000,0,50000,0,0,0,0,0.00,0.00,0.00,0.00
2017-09-15 20:00:00,2,50000,0,0.00,2,2,0,2,50000,50000,0,50000,0,0,0,0,0.00,0.00,0.00,0.00
2017-09-15 20:10:00,2,50000,0,0.00,2,2,0,2,50000,50000,0,50000,0,0,0,0,0.00,0.00,0.00,0.00
2017-09-15 20:20:00,2,50000,0,0.00,2,2,0,2,50000,50000,0,50000,0,0,0,0,0.00,0.00,0.00,0.00
2017-09-15 20:30:00,2,50000,0,0.00,2,2,0,2,50000,50000,0,50000,0,0,0,0,0.00,0.00,0.00,0.00
2017-09-15 20:40:00,2,50000,0,0.00,2,2,0,2,50000,50000,0,50000,0,0,0,0,0.00,0.00,0.00,0.00
2017-09-15 20:50:00,2,50000,0,0.00,2,2,0,2,50000,50000,0,50000,0,0,0,0,0.00,0.00,0.00,0.00
2017-09-15 21:00:00,2,50000,0,0.00,2,2,0,2,50000,50000,0,50000,0,0,0,0,0.00,0.00,0.00,0.00
2017-09-15 21:10:00,2,50000,0,0.00,2,2,0,2,50000,50000,0,50000,0,0,0,0,0.00,0.00,0.00,0.00
2017-09-15 21:20:00,2,50000,0,0.00,2,2,0,2,50000,50000,0,50000,0,0,0,0,0.00,0.00,0.00,0.00
2017-09-15 21:30:00,2,50000,0,0.00,2,2,0,2,50000,50000,0,50000,0,0,0,0,0.00,0.00,0.00,0.00
2017-09-15 21:40:00,2,50000,0,0.00,2,2,0,2,50000,50000,0,50000,0,0,0,0,0.00,0.00,0.00,0.00
2017-09-15 21:50:00,2,50000,0,0.00,2,2,0,2,50000,50000,0,50000,0,0,0,0,0.00,0.00,0.00,0.00
2017-09-15 22:00:00,2,50000,0,0.00,2,2,0,2,50000,50000,0,50000,0,0,0,0,0.00,0.00,0.00,0.00
2017-09-15 22:10:00,2,49993,0,0.00,2,2,0,2,49930,50000,21,50000,0,0,0,0,0.00,0.00,0.00,0.00
2017-09-15 22:20:00,2,49879,0,0.00,2,2,0,2,48823,50000,352,50000,0,0,0,0,0.00,0.00,0.00,0.00
2017-09-15 22:30:00,2,49959,0,0.00,2,2,0,2,49591,50000,123,50000,0,0,0,0,0.00,0.00,0.00,0.00
2017-09-15 22:40:00,2,50000,0,0.00,2,2,0,2,50000,50000,0,50000,0,0,0,0,0.00,0.00,0.00,0.00
2017-09-15 22:50:00,2,50000,0,0.00,2,2,0,2,50000,50000,0,50000,0,0,0,0,0.00,0.00,0.00,0.00
2017-09-15 23:00:00,2,50000,0,0.00,2,2,0,2,50000,50000,0,50000,0,0,0,0,0.00,0.00,0.00,0.00
2017-09-15 23:10:00,2,50000,0,0.00,2,2,0,2,50000,50000,0,50000,0,0,0,0,0.00,0.00,0.00,0.00
2017-09-15 23:20:00,2,49740,0,0.00,2,2,0,2,48504,50000,527,50000,0,0,0,0,0.00,0.00,0.00,0.00
2017-09-15 23:30:00,2,50000,0,0.00,2,2,0,2,50000,50000,0,50000,0,0,0,0,0.00,0.00,0.00,0.00
2017-09-15 23:40:00,2,50000,0,0.00,2,2,0,2,50000,50000,0,50000,0,0,0,0,0.00,0.00,0.00,0.00
2017-09-15 23:50:00,2,49805,0,0.00,2,2,0,2,48047,50000,586,50000,0,0,0,0,0.00,0.00,0.00,0.00
